Weather Roundup
Issued by NWS Chicago, IL

Home | Current Version | Previous Version | Graphics & Text | Print | Product List | Glossary Off
Versions: 1 2 3 4 5 6 7 8 9 10 11 12 13 14 15 16 17 18 19 20 21 22 23 24 25 26 27 28 29 30 31 32 33 34 35 36 37 38 39 40 41 42 43 44 45 46 47 48 49 50

000
NZUS59 KLOT 220309
HRRLOT

CHICAGO AREA WEATHER ROUNDUP
NATIONAL WEATHER SERVICE CHICAGO/ROMEOVILLE IL
1000 PM CDT FRI JUL 21 2017

NOTE: "FAIR" INDICATES FEW OR NO CLOUDS BELOW 12,000 FEET WITH NO
SIGNIFICANT WEATHER AND/OR OBSTRUCTIONS TO VISIBILITY.

* THESE STATIONS ARE NOT UNDER NWS QUALITY CONTROL. THEY ALSO MAY NOT
  REPORT WEATHER SUCH AS PRECIPITATION OR FOG.

ILZ005-006-012>014-019>023-220400-
NORTHEAST ILLINOIS

CITY           SKY/WX    TMP DP  RH WIND       PRES   REMARKS
OHARE          TSTM      75  71  87 E8        29.88F
MIDWAY         TSTM      75  73  93 E6        29.88S
AURORA         TSTM      71  70  96 SW5       29.88F
LANSING*       CLOUDY    75  72  88 N5        29.91R
JOLIET*        CLOUDY    75  73  91 N17G30    29.90R
WAUKEGAN       TSTM      72  71  97 E8        29.89S FOG
DUPAGE AIRPORT TSTM      75  74  96 S17       29.84F FOG
WHEELING       LGT RAIN  75  73  93 E7        29.89F
MORRIS*        CLOUDY    73  69  87 NE7G17    29.88R
LEWIS AIRPORT* TSTM      73  68  86 NW14G31   29.92R
NORTHERLY ISL    N/A     73  70  90 CALM        N/A
$$

WIZ051-052-058>065-066-070>072-220400-
SOUTHEAST WISCONSIN

CITY           SKY/WX    TMP DP  RH WIND       PRES   REMARKS
MILWAUKEE      RAIN      69  62  78 SE14      29.89F
KENOSHA*       RAIN      71  69  93 NE8       29.91R FOG
RACINE*        CLOUDY    71  70  96 CALM      29.92R FOG
WEST BEND      HVY RAIN  64  64 100 CALM      29.92R
$$

INZ001>003-010>013-019-020-220400-
NORTHWEST INDIANA

CITY           SKY/WX    TMP DP  RH WIND       PRES   REMARKS
GARY*          RAIN      77  75  94 NE6       29.92R
MICHIGAN CITY* NOT AVBL
RENSSELAER*    NOT AVBL
VALPARAISO     LGT RAIN  73  72  96 E10       29.94F
$$

LMZ740>746-220400-
SOUTHERN LAKE MICHIGAN

STATION/POSITION TIME  SKY/WX   TEMP WIND        PRES    VSBY
                                AIR  DIR/SP/G
                 (UTC)          (F)  (DEG/KT/KT) (MB)    (MI)
HARRISON CRIB    0240            73   80/ 10/ 12   N/A
BURNHAM HARBOR   0300            73                N/A
CALUMET HARBOR   0248            75  120/  7/ 12 1012.0R
BURNS HARBOR     0240            76  180/  7/ 17 1013.9R
MICHIGAN CITY    0240            78  120/  6/  8   N/A
$$

ABBREVIATIONS USED IN REMARKS
   TC - TEMPERATURE IN CELSIUS
  WCI - WIND CHILL INDEX
   HX - HEAT INDEX
  VSB - VISIBILITY
$$



USA.gov is the U.S. government's official web portal to all federal, state and local government web resources and services.